Time,TemperatureF,DewpointF,PressureIn,WindDirection,WindDirectionDegrees,WindSpeedMPH,WindSpeedGustMPH,Humidity,HourlyPrecipIn,Conditions,Clouds,dailyrainin,SoftwareType,DateUTC
2013-07-14 00:01:00,71.9,69.8,30.24,SE,133,0.0,0.0,93,0.00,,,0.00,WUHU216DAVISVP2,2013-07-14 04:01:00,
2013-07-14 00:06:00,71.7,69.5,30.25,SE,133,0.0,0.0,93,0.00,,,0.00,WUHU216DAVISVP2,2013-07-14 04:06:00,
2013-07-14 00:11:00,71.7,69.8,30.25,SE,133,0.0,0.0,94,0.00,,,0.00,WUHU216DAVISVP2,2013-07-14 04:11:00,
2013-07-14 00:16:00,71.6,69.8,30.25,SE,133,0.0,0.0,94,0.00,,,0.00,WUHU216DAVISVP2,2013-07-14 04:16:00,
2013-07-14 00:21:00,71.5,69.7,30.25,SE,132,0.0,0.0,94,0.00,,,0.00,WUHU216DAVISVP2,2013-07-14 04:21:00,
2013-07-14 00:26:00,71.4,69.6,30.25,SE,133,0.0,0.0,94,0.00,,,0.00,WUHU216DAVISVP2,2013-07-14 04:26:00,
2013-07-14 00:31:00,71.4,69.9,30.25,SE,133,0.0,0.0,95,0.00,,,0.00,WUHU216DAVISVP2,2013-07-14 04:31:00,
2013-07-14 00:36:00,71.4,69.9,30.24,SE,133,0.0,0.0,95,0.00,,,0.00,WUHU216DAVISVP2,2013-07-14 04:36:00,
2013-07-14 00:41:00,71.4,69.9,30.25,SE,133,0.0,0.0,95,0.00,,,0.00,WUHU216DAVISVP2,2013-07-14 04:41:00,
2013-07-14 00:46:00,71.2,69.7,30.24,SE,133,0.0,0.0,95,0.00,,,0.00,WUHU216DAVISVP2,2013-07-14 04:46:00,
2013-07-14 00:51:00,71.2,69.7,30.25,SE,133,0.0,0.0,95,0.00,,,0.00,WUHU216DAVISVP2,2013-07-14 04:51:00,
2013-07-14 00:56:00,71.2,69.7,30.25,SE,133,0.0,0.0,95,0.00,,,0.00,WUHU216DAVISVP2,2013-07-14 04:56:00,
2013-07-14 01:01:00,71.2,69.7,30.25,SE,133,0.0,0.0,95,0.00,,,0.00,WUHU216DAVISVP2,2013-07-14 05:01:00,
2013-07-14 01:06:00,71.2,69.7,30.25,SE,132,0.0,0.0,95,0.00,,,0.00,WUHU216DAVISVP2,2013-07-14 05:06:00,
2013-07-14 01:11:00,71.2,69.7,30.25,SE,133,0.0,0.0,95,0.00,,,0.00,WUHU216DAVISVP2,2013-07-14 05:11:00,
2013-07-14 01:16:00,71.1,69.6,30.25,SE,133,0.0,0.0,95,0.00,,,0.00,WUHU216DAVISVP2,2013-07-14 05:16:00,
2013-07-14 01:21:00,71.1,69.9,30.25,SE,133,0.0,0.0,96,0.00,,,0.00,WUHU216DAVISVP2,2013-07-14 05:21:00,
2013-07-14 01:26:00,71.1,69.6,30.25,SE,133,0.0,0.0,95,0.00,,,0.00,WUHU216DAVISVP2,2013-07-14 05:26:00,
2013-07-14 01:31:00,71.0,69.8,30.25,SE,133,0.0,0.0,96,0.00,,,0.00,WUHU216DAVISVP2,2013-07-14 05:31:00,
2013-07-14 01:36:00,70.9,69.7,30.25,SE,133,0.0,0.0,96,0.00,,,0.00,WUHU216DAVISVP2,2013-07-14 05:36:00,
2013-07-14 01:41:00,70.9,69.7,30.25,SE,133,0.0,0.0,96,0.00,,,0.00,WUHU216DAVISVP2,2013-07-14 05:41:00,
2013-07-14 01:46:00,70.8,69.6,30.25,SE,133,0.0,0.0,96,0.00,,,0.00,WUHU216DAVISVP2,2013-07-14 05:46:00,
2013-07-14 01:51:00,70.7,69.5,30.25,SE,133,0.0,0.0,96,0.00,,,0.00,WUHU216DAVISVP2,2013-07-14 05:51:00,
2013-07-14 01:56:00,70.8,69.6,30.25,SSE,155,2.0,2.0,96,0.00,,,0.00,WUHU216DAVISVP2,2013-07-14 05:56:00,
2013-07-14 02:01:00,71.0,70.1,30.25,ESE,105,0.0,2.0,97,0.00,,,0.00,WUHU216DAVISVP2,2013-07-14 06:01:00,
2013-07-14 02:06:00,71.1,70.2,30.25,SE,136,2.0,3.0,97,0.00,,,0.00,WUHU216DAVISVP2,2013-07-14 06:06:00,
2013-07-14 02:11:00,71.2,70.0,30.25,SSE,152,1.0,4.0,96,0.00,,,0.00,WUHU216DAVISVP2,2013-07-14 06:11:00,
2013-07-14 02:16:00,71.3,70.1,30.25,SSE,150,0.0,4.0,96,0.00,,,0.00,WUHU216DAVISVP2,2013-07-14 06:16:00,
2013-07-14 02:21:00,71.3,70.1,30.25,SE,143,0.0,4.0,96,0.00,,,0.00,WUHU216DAVISVP2,2013-07-14 06:21:00,
2013-07-14 02:26:00,71.2,70.0,30.25,SE,139,0.0,4.0,96,0.00,,,0.00,WUHU216DAVISVP2,2013-07-14 06:26:00,
2013-07-14 02:31:00,71.1,69.9,30.25,SE,139,0.0,2.0,96,0.00,,,0.00,WUHU216DAVISVP2,2013-07-14 06:31:00,
2013-07-14 02:36:00,71.0,69.8,30.25,SSE,155,0.0,1.0,96,0.00,,,0.00,WUHU216DAVISVP2,2013-07-14 06:36:00,
2013-07-14 02:41:00,70.9,69.7,30.25,SSE,155,0.0,1.0,96,0.00,,,0.00,WUHU216DAVISVP2,2013-07-14 06:41:00,
2013-07-14 02:46:00,70.8,69.6,30.26,SE,141,0.0,1.0,96,0.00,,,0.00,WUHU216DAVISVP2,2013-07-14 06:46:00,
2013-07-14 02:51:00,70.8,69.6,30.26,SE,141,0.0,1.0,96,0.00,,,0.00,WUHU216DAVISVP2,2013-07-14 06:51:00,
2013-07-14 02:56:00,70.7,69.5,30.26,South,170,0.0,1.0,96,0.00,,,0.00,WUHU216DAVISVP2,2013-07-14 06:56:00,
2013-07-14 03:01:00,70.6,69.4,30.26,South,171,0.0,1.0,96,0.00,,,0.00,WUHU216DAVISVP2,2013-07-14 07:01:00,
2013-07-14 03:06:00,70.6,69.7,30.26,South,171,0.0,1.0,97,0.00,,,0.00,WUHU216DAVISVP2,2013-07-14 07:06:00,
2013-07-14 03:11:00,70.5,69.6,30.26,SSE,149,0.0,1.0,97,0.00,,,0.00,WUHU216DAVISVP2,2013-07-14 07:11:00,
2013-07-14 03:16:00,70.5,69.6,30.25,SSE,149,0.0,1.0,97,0.00,,,0.00,WUHU216DAVISVP2,2013-07-14 07:16:00,
2013-07-14 03:21:00,70.5,69.6,30.26,South,181,0.0,1.0,97,0.00,,,0.00,WUHU216DAVISVP2,2013-07-14 07:21:00,
2013-07-14 03:26:00,70.3,69.1,30.25,South,181,0.0,1.0,96,0.00,,,0.00,WUHU216DAVISVP2,2013-07-14 07:26:00,
2013-07-14 03:31:00,70.1,68.9,30.26,South,181,0.0,1.0,96,0.00,,,0.00,WUHU216DAVISVP2,2013-07-14 07:31:00,
2013-07-14 03:36:00,70.0,69.1,30.26,South,183,0.0,2.0,97,0.00,,,0.00,WUHU216DAVISVP2,2013-07-14 07:36:00,
2013-07-14 03:41:00,69.9,68.7,30.26,South,183,0.0,2.0,96,0.00,,,0.00,WUHU216DAVISVP2,2013-07-14 07:41:00,
2013-07-14 03:46:00,69.7,68.8,30.26,South,183,0.0,2.0,97,0.00,,,0.00,WUHU216DAVISVP2,2013-07-14 07:46:00,
2013-07-14 03:51:00,69.5,68.6,30.26,South,183,0.0,1.0,97,0.00,,,0.00,WUHU216DAVISVP2,2013-07-14 07:51:00,
2013-07-14 03:56:00,69.4,68.5,30.26,South,183,0.0,0.0,97,0.00,,,0.00,WUHU216DAVISVP2,2013-07-14 07:56:00,
2013-07-14 04:01:00,69.3,68.4,30.26,South,183,0.0,0.0,97,0.00,,,0.00,WUHU216DAVISVP2,2013-07-14 08:01:00,
2013-07-14 04:06:00,69.3,68.4,30.26,South,183,0.0,0.0,97,0.00,,,0.00,WUHU216DAVISVP2,2013-07-14 08:06:00,
2013-07-14 04:11:00,69.2,68.3,30.26,South,183,0.0,0.0,97,0.00,,,0.00,WUHU216DAVISVP2,2013-07-14 08:11:00,
2013-07-14 04:16:00,69.2,68.3,30.26,South,183,0.0,0.0,97,0.00,,,0.00,WUHU216DAVISVP2,2013-07-14 08:16:00,
2013-07-14 04:21:00,69.2,68.3,30.26,South,183,0.0,0.0,97,0.00,,,0.00,WUHU216DAVISVP2,2013-07-14 08:21:00,
2013-07-14 04:26:00,69.1,68.2,30.26,South,183,0.0,0.0,97,0.00,,,0.00,WUHU216DAVISVP2,2013-07-14 08:26:00,
2013-07-14 04:31:00,69.1,68.2,30.26,South,183,0.0,0.0,97,0.00,,,0.00,WUHU216DAVISVP2,2013-07-14 08:31:00,
2013-07-14 04:36:00,69.2,68.6,30.26,South,183,0.0,0.0,98,0.00,,,0.00,WUHU216DAVISVP2,2013-07-14 08:36:00,
2013-07-14 04:41:00,69.1,68.5,30.26,South,183,0.0,0.0,98,0.00,,,0.00,WUHU216DAVISVP2,2013-07-14 08:41:00,
2013-07-14 04:46:00,69.1,68.5,30.26,South,183,0.0,0.0,98,0.00,,,0.00,WUHU216DAVISVP2,2013-07-14 08:46:00,
2013-07-14 04:51:00,69.0,68.4,30.26,South,183,0.0,0.0,98,0.00,,,0.00,WUHU216DAVISVP2,2013-07-14 08:51:00,
2013-07-14 04:56:00,69.0,68.4,30.26,South,183,0.0,0.0,98,0.00,,,0.00,WUHU216DAVISVP2,2013-07-14 08:56:00,
2013-07-14 05:01:00,68.9,68.3,30.27,South,183,0.0,0.0,98,0.00,,,0.00,WUHU216DAVISVP2,2013-07-14 09:01:00,
2013-07-14 05:06:00,68.9,68.3,30.27,South,183,0.0,0.0,98,0.00,,,0.00,WUHU216DAVISVP2,2013-07-14 09:06:00,
2013-07-14 05:11:00,68.8,67.9,30.27,South,183,0.0,0.0,97,0.00,,,0.00,WUHU216DAVISVP2,2013-07-14 09:11:00,
2013-07-14 05:16:00,68.8,68.2,30.27,South,183,0.0,0.0,98,0.00,,,0.00,WUHU216DAVISVP2,2013-07-14 09:16:00,
2013-07-14 05:21:00,68.6,67.7,30.28,South,183,0.0,0.0,97,0.00,,,0.00,WUHU216DAVISVP2,2013-07-14 09:21:00,
2013-07-14 05:26:00,68.5,67.9,30.28,South,183,0.0,0.0,98,0.00,,,0.00,WUHU216DAVISVP2,2013-07-14 09:26:00,
2013-07-14 05:31:00,68.6,68.0,30.28,South,183,0.0,1.0,98,0.00,,,0.00,WUHU216DAVISVP2,2013-07-14 09:31:00,
2013-07-14 05:36:00,68.6,68.0,30.28,South,183,0.0,1.0,98,0.00,,,0.00,WUHU216DAVISVP2,2013-07-14 09:36:00,
2013-07-14 05:41:00,68.9,68.3,30.28,South,183,0.0,1.0,98,0.00,,,0.00,WUHU216DAVISVP2,2013-07-14 09:41:00,
2013-07-14 05:46:00,69.1,68.5,30.28,SSE,159,0.0,1.0,98,0.00,,,0.00,WUHU216DAVISVP2,2013-07-14 09:46:00,
2013-07-14 05:51:00,69.2,68.6,30.28,SSE,160,0.0,1.0,98,0.00,,,0.00,WUHU216DAVISVP2,2013-07-14 09:51:00,
2013-07-14 05:56:00,69.4,68.8,30.28,SSE,155,0.0,1.0,98,0.00,,,0.00,WUHU216DAVISVP2,2013-07-14 09:56:00,
2013-07-14 06:01:00,69.5,68.9,30.28,SSE,155,0.0,1.0,98,0.00,,,0.00,WUHU216DAVISVP2,2013-07-14 10:01:00,
2013-07-14 06:06:00,69.6,69.0,30.29,SE,136,0.0,1.0,98,0.00,,,0.00,WUHU216DAVISVP2,2013-07-14 10:06:00,
2013-07-14 06:11:00,69.7,69.1,30.28,SE,136,0.0,1.0,98,0.00,,,0.00,WUHU216DAVISVP2,2013-07-14 10:11:00,
2013-07-14 06:16:00,70.1,69.5,30.29,SE,136,0.0,1.0,98,0.00,,,0.00,WUHU216DAVISVP2,2013-07-14 10:16:00,
2013-07-14 06:21:00,70.5,69.6,30.29,SE,136,0.0,1.0,97,0.00,,,0.00,WUHU216DAVISVP2,2013-07-14 10:21:00,
2013-07-14 06:26:00,70.6,69.7,30.29,SE,136,0.0,0.0,97,0.00,,,0.00,WUHU216DAVISVP2,2013-07-14 10:26:00,
2013-07-14 06:31:00,71.0,70.1,30.29,SSW,193,0.0,0.0,97,0.00,,,0.00,WUHU216DAVISVP2,2013-07-14 10:31:00,
2013-07-14 06:36:00,71.5,70.3,30.29,SSE,150,0.0,2.0,96,0.00,,,0.00,WUHU216DAVISVP2,2013-07-14 10:36:00,
2013-07-14 06:41:00,72.0,70.5,30.29,SE,146,0.0,2.0,95,0.00,,,0.00,WUHU216DAVISVP2,2013-07-14 10:41:00,
2013-07-14 06:46:00,72.3,70.4,30.29,SSE,160,2.0,3.0,94,0.00,,,0.00,WUHU216DAVISVP2,2013-07-14 10:46:00,
2013-07-14 06:51:00,72.7,70.5,30.30,SE,136,1.0,3.0,93,0.00,,,0.00,WUHU216DAVISVP2,2013-07-14 10:51:00,
2013-07-14 06:56:00,73.0,70.5,30.30,SE,139,0.0,3.0,92,0.00,,,0.00,WUHU216DAVISVP2,2013-07-14 10:56:00,
2013-07-14 07:01:00,73.4,70.6,30.30,SE,141,0.0,3.0,91,0.00,,,0.00,WUHU216DAVISVP2,2013-07-14 11:01:00,
2013-07-14 07:06:00,73.7,70.6,30.30,SE,141,2.0,3.0,90,0.00,,,0.00,WUHU216DAVISVP2,2013-07-14 11:06:00,
2013-07-14 07:11:00,73.9,70.4,30.30,SE,131,3.0,4.0,89,0.00,,,0.00,WUHU216DAVISVP2,2013-07-14 11:11:00,
2013-07-14 07:16:00,74.2,70.7,30.30,SSE,159,2.0,4.0,89,0.00,,,0.00,WUHU216DAVISVP2,2013-07-14 11:16:00,
2013-07-14 07:21:00,74.2,70.4,30.30,SSE,158,0.0,5.0,88,0.00,,,0.00,WUHU216DAVISVP2,2013-07-14 11:21:00,
2013-07-14 07:26:00,74.0,70.5,30.30,SE,141,0.0,5.0,89,0.00,,,0.00,WUHU216DAVISVP2,2013-07-14 11:26:00,
2013-07-14 07:31:00,73.8,70.3,30.30,SE,127,0.0,5.0,89,0.00,,,0.00,WUHU216DAVISVP2,2013-07-14 11:31:00,
2013-07-14 07:36:00,73.8,70.3,30.30,SSE,166,0.0,5.0,89,0.00,,,0.00,WUHU216DAVISVP2,2013-07-14 11:36:00,
2013-07-14 07:41:00,74.3,70.8,30.30,SE,146,1.0,4.0,89,0.00,,,0.00,WUHU216DAVISVP2,2013-07-14 11:41:00,
2013-07-14 07:46:00,74.9,71.1,30.30,SSW,212,1.0,4.0,88,0.00,,,0.00,WUHU216DAVISVP2,2013-07-14 11:46:00,
2013-07-14 07:51:00,75.4,71.3,30.30,SE,135,1.0,4.0,87,0.00,,,0.00,WUHU216DAVISVP2,2013-07-14 11:51:00,
2013-07-14 07:56:00,75.7,71.2,30.31,South,179,0.0,4.0,86,0.00,,,0.00,WUHU216DAVISVP2,2013-07-14 11:56:00,
2013-07-14 08:01:00,75.9,71.1,30.31,SE,133,2.0,5.0,85,0.00,,,0.00,WUHU216DAVISVP2,2013-07-14 12:01:00,
2013-07-14 08:06:00,76.4,71.6,30.31,ESE,117,0.0,5.0,85,0.00,,,0.00,WUHU216DAVISVP2,2013-07-14 12:06:00,
2013-07-14 08:11:00,77.1,71.6,30.31,South,188,0.0,5.0,83,0.00,,,0.00,WUHU216DAVISVP2,2013-07-14 12:11:00,
2013-07-14 08:16:00,77.1,71.6,30.31,ESE,114,4.0,5.0,83,0.00,,,0.00,WUHU216DAVISVP2,2013-07-14 12:16:00,
2013-07-14 08:21:00,77.6,72.1,30.31,SSW,192,0.0,5.0,83,0.00,,,0.00,WUHU216DAVISVP2,2013-07-14 12:21:00,
2013-07-14 08:26:00,77.8,71.9,30.31,WSW,250,0.0,6.0,82,0.00,,,0.00,WUHU216DAVISVP2,2013-07-14 12:26:00,
2013-07-14 08:31:00,78.2,72.3,30.31,ESE,117,1.0,6.0,82,0.00,,,0.00,WUHU216DAVISVP2,2013-07-14 12:31:00,
2013-07-14 08:36:00,78.5,72.3,30.31,South,181,0.0,6.0,81,0.00,,,0.00,WUHU216DAVISVP2,2013-07-14 12:36:00,
2013-07-14 08:41:00,78.9,72.7,30.31,SW,221,0.0,6.0,81,0.00,,,0.00,WUHU216DAVISVP2,2013-07-14 12:41:00,
2013-07-14 08:46:00,79.7,73.1,30.31,WSW,237,1.0,4.0,80,0.00,,,0.00,WUHU216DAVISVP2,2013-07-14 12:46:00,
2013-07-14 08:51:00,79.7,72.7,30.31,SW,226,1.0,4.0,79,0.00,,,0.00,WUHU216DAVISVP2,2013-07-14 12:51:00,
2013-07-14 08:56:00,79.3,72.0,30.31,SW,227,1.0,8.0,78,0.00,,,0.00,WUHU216DAVISVP2,2013-07-14 12:56:00,
2013-07-14 09:01:00,79.6,72.3,30.31,SW,233,8.0,9.0,78,0.00,,,0.00,WUHU216DAVISVP2,2013-07-14 13:01:00,
2013-07-14 09:06:00,79.5,72.5,30.30,SW,216,2.0,9.0,79,0.00,,,0.00,WUHU216DAVISVP2,2013-07-14 13:06:00,
2013-07-14 09:11:00,79.8,72.8,30.30,WSW,242,2.0,9.0,79,0.00,,,0.00,WUHU216DAVISVP2,2013-07-14 13:11:00,
2013-07-14 09:16:00,80.2,72.5,30.30,WSW,248,6.0,9.0,77,0.00,,,0.00,WUHU216DAVISVP2,2013-07-14 13:16:00,
2013-07-14 09:21:00,80.5,72.8,30.30,SSE,160,3.0,7.0,77,0.00,,,0.00,WUHU216DAVISVP2,2013-07-14 13:21:00,
2013-07-14 09:26:00,80.6,72.9,30.29,SW,217,2.0,7.0,77,0.00,,,0.00,WUHU216DAVISVP2,2013-07-14 13:26:00,
2013-07-14 09:31:00,80.7,72.4,30.30,WSW,240,2.0,7.0,76,0.00,,,0.00,WUHU216DAVISVP2,2013-07-14 13:31:00,
2013-07-14 09:36:00,80.7,72.6,30.30,SW,216,5.0,8.0,76,0.00,,,0.00,WUHU216DAVISVP2,2013-07-14 13:36:00,
2013-07-14 09:41:00,80.7,72.2,30.30,SSW,205,2.0,9.0,75,0.00,,,0.00,WUHU216DAVISVP2,2013-07-14 13:41:00,
2013-07-14 09:46:00,81.4,72.5,30.30,SE,143,4.0,9.0,74,0.00,,,0.00,WUHU216DAVISVP2,2013-07-14 13:46:00,
2013-07-14 09:51:00,81.2,72.3,30.29,WSW,256,1.0,8.0,74,0.00,,,0.00,WUHU216DAVISVP2,2013-07-14 13:51:00,
2013-07-14 09:56:00,81.4,72.5,30.29,South,171,2.0,8.0,74,0.00,,,0.00,WUHU216DAVISVP2,2013-07-14 13:56:00,
2013-07-14 10:01:00,82.0,72.7,30.29,SSE,148,2.0,7.0,73,0.00,,,0.00,WUHU216DAVISVP2,2013-07-14 14:01:00,
2013-07-14 10:06:00,82.1,72.8,30.29,SSW,197,4.0,7.0,73,0.00,,,0.00,WUHU216DAVISVP2,2013-07-14 14:06:00,
2013-07-14 10:11:00,81.7,72.2,30.29,ESE,115,1.0,7.0,73,0.00,,,0.00,WUHU216DAVISVP2,2013-07-14 14:11:00,
2013-07-14 10:16:00,82.4,72.9,30.29,ESE,119,2.0,7.0,73,0.00,,,0.00,WUHU216DAVISVP2,2013-07-14 14:16:00,
2013-07-14 10:21:00,82.8,72.8,30.29,SE,124,0.0,6.0,72,0.00,,,0.00,WUHU216DAVISVP2,2013-07-14 14:21:00,
2013-07-14 10:26:00,83.4,73.2,30.29,SSW,194,2.0,6.0,71,0.00,,,0.00,WUHU216DAVISVP2,2013-07-14 14:26:00,
2013-07-14 10:31:00,83.9,72.9,30.29,SSW,207,4.0,6.0,69,0.00,,,0.00,WUHU216DAVISVP2,2013-07-14 14:31:00,
2013-07-14 10:36:00,84.0,73.4,30.29,ESE,108,1.0,5.0,70,0.00,,,0.00,WUHU216DAVISVP2,2013-07-14 14:36:00,
2013-07-14 10:41:00,83.7,72.7,30.29,WSW,250,4.0,6.0,69,0.00,,,0.00,WUHU216DAVISVP2,2013-07-14 14:41:00,
2013-07-14 10:46:00,83.6,72.2,30.29,WSW,255,3.0,6.0,68,0.00,,,0.00,WUHU216DAVISVP2,2013-07-14 14:46:00,
2013-07-14 10:51:00,84.2,72.8,30.29,SE,127,1.0,6.0,68,0.00,,,0.00,WUHU216DAVISVP2,2013-07-14 14:51:00,
2013-07-14 10:56:00,84.5,72.2,30.29,SSE,152,3.0,7.0,66,0.00,,,0.00,WUHU216DAVISVP2,2013-07-14 14:56:00,
2013-07-14 11:01:00,84.7,71.9,30.29,SSE,166,0.0,7.0,65,0.00,,,0.00,WUHU216DAVISVP2,2013-07-14 15:01:00,
2013-07-14 11:06:00,84.8,72.4,30.29,SSE,151,2.0,6.0,66,0.00,,,0.00,WUHU216DAVISVP2,2013-07-14 15:06:00,
2013-07-14 11:11:00,85.6,72.8,30.28,SW,218,4.0,6.0,65,0.00,,,0.00,WUHU216DAVISVP2,2013-07-14 15:11:00,
2013-07-14 11:16:00,85.3,72.5,30.29,West,259,2.0,4.0,65,0.00,,,0.00,WUHU216DAVISVP2,2013-07-14 15:16:00,
2013-07-14 11:21:00,84.9,71.6,30.29,West,263,0.0,5.0,64,0.00,,,0.00,WUHU216DAVISVP2,2013-07-14 15:21:00,
2013-07-14 11:26:00,84.8,71.1,30.29,SW,218,1.0,6.0,63,0.00,,,0.00,WUHU216DAVISVP2,2013-07-14 15:26:00,
2013-07-14 11:31:00,85.5,71.3,30.29,SW,226,0.0,6.0,62,0.00,,,0.00,WUHU216DAVISVP2,2013-07-14 15:31:00,
2013-07-14 11:36:00,85.4,71.4,30.29,WSW,239,5.0,6.0,63,0.00,,,0.00,WUHU216DAVISVP2,2013-07-14 15:36:00,
2013-07-14 11:41:00,85.0,69.6,30.29,West,278,1.0,6.0,60,0.00,,,0.00,WUHU216DAVISVP2,2013-07-14 15:41:00,
2013-07-14 11:46:00,85.3,70.6,30.29,SW,232,3.0,5.0,61,0.00,,,0.00,WUHU216DAVISVP2,2013-07-14 15:46:00,
2013-07-14 11:51:00,85.3,70.6,30.29,West,259,0.0,5.0,61,0.00,,,0.00,WUHU216DAVISVP2,2013-07-14 15:51:00,
2013-07-14 11:56:00,85.6,70.9,30.29,WSW,239,0.0,5.0,61,0.00,,,0.00,WUHU216DAVISVP2,2013-07-14 15:56:00,
2013-07-14 12:01:00,86.4,71.1,30.28,SW,217,2.0,5.0,60,0.00,,,0.00,WUHU216DAVISVP2,2013-07-14 16:01:00,
2013-07-14 12:06:00,86.2,71.0,30.28,North,355,2.0,5.0,60,0.00,,,0.00,WUHU216DAVISVP2,2013-07-14 16:06:00,
2013-07-14 12:11:00,85.9,71.2,30.28,NE,36,1.0,6.0,61,0.00,,,0.00,WUHU216DAVISVP2,2013-07-14 16:11:00,
2013-07-14 12:16:00,85.6,71.1,30.29,East,100,1.0,6.0,62,0.00,,,0.00,WUHU216DAVISVP2,2013-07-14 16:16:00,
2013-07-14 12:21:00,85.3,71.6,30.28,East,82,0.0,5.0,63,0.00,,,0.00,WUHU216DAVISVP2,2013-07-14 16:21:00,
2013-07-14 12:26:00,85.1,72.3,30.28,East,101,1.0,5.0,65,0.00,,,0.00,WUHU216DAVISVP2,2013-07-14 16:26:00,
2013-07-14 12:31:00,85.2,72.4,30.28,SE,142,1.0,4.0,65,0.00,,,0.00,WUHU216DAVISVP2,2013-07-14 16:31:00,
2013-07-14 12:36:00,85.1,71.8,30.28,East,95,4.0,5.0,64,0.00,,,0.00,WUHU216DAVISVP2,2013-07-14 16:36:00,
2013-07-14 12:41:00,85.0,72.6,30.28,East,83,3.0,5.0,66,0.00,,,0.00,WUHU216DAVISVP2,2013-07-14 16:41:00,
2013-07-14 12:46:00,85.5,73.1,30.27,SSE,150,1.0,6.0,66,0.00,,,0.00,WUHU216DAVISVP2,2013-07-14 16:46:00,
2013-07-14 12:51:00,85.7,72.9,30.27,ENE,68,2.0,8.0,65,0.00,,,0.00,WUHU216DAVISVP2,2013-07-14 16:51:00,
2013-07-14 12:56:00,86.4,72.8,30.27,SSE,149,2.0,8.0,64,0.00,,,0.00,WUHU216DAVISVP2,2013-07-14 16:56:00,
2013-07-14 13:01:00,86.7,73.4,30.27,East,84,2.0,7.0,64,0.00,,,0.00,WUHU216DAVISVP2,2013-07-14 17:01:00,
2013-07-14 13:06:00,87.1,72.8,30.27,SSE,162,3.0,7.0,62,0.00,,,0.00,WUHU216DAVISVP2,2013-07-14 17:06:00,
2013-07-14 13:11:00,87.4,72.6,30.26,SE,140,1.0,6.0,61,0.00,,,0.00,WUHU216DAVISVP2,2013-07-14 17:11:00,
2013-07-14 13:16:00,87.9,72.6,30.27,SSE,165,2.0,6.0,60,0.00,,,0.00,WUHU216DAVISVP2,2013-07-14 17:16:00,
2013-07-14 13:21:00,88.4,74.0,30.26,ENE,70,6.0,6.0,62,0.00,,,0.00,WUHU216DAVISVP2,2013-07-14 17:21:00,
2013-07-14 13:26:00,88.1,72.5,30.27,WSW,239,1.0,8.0,60,0.00,,,0.00,WUHU216DAVISVP2,2013-07-14 17:26:00,
2013-07-14 13:31:00,89.3,73.6,30.27,West,273,0.0,8.0,60,0.00,,,0.00,WUHU216DAVISVP2,2013-07-14 17:31:00,
2013-07-14 13:36:00,89.6,73.1,30.26,SE,129,1.0,7.0,58,0.00,,,0.00,WUHU216DAVISVP2,2013-07-14 17:36:00,
2013-07-14 13:41:00,90.5,73.5,30.26,SSE,163,1.0,5.0,57,0.00,,,0.00,WUHU216DAVISVP2,2013-07-14 17:41:00,
2013-07-14 13:46:00,91.2,73.6,30.26,SE,140,2.0,3.0,56,0.00,,,0.00,WUHU216DAVISVP2,2013-07-14 17:46:00,
2013-07-14 13:51:00,90.6,72.5,30.26,SW,219,7.0,7.0,55,0.00,,,0.00,WUHU216DAVISVP2,2013-07-14 17:51:00,
2013-07-14 13:56:00,90.1,71.5,30.26,SSE,151,0.0,7.0,54,0.00,,,0.00,WUHU216DAVISVP2,2013-07-14 17:56:00,
2013-07-14 14:01:00,90.2,72.1,30.26,WSW,243,2.0,7.0,55,0.00,,,0.00,WUHU216DAVISVP2,2013-07-14 18:01:00,
2013-07-14 14:06:00,89.9,71.6,30.26,NW,304,1.0,7.0,55,0.00,,,0.00,WUHU216DAVISVP2,2013-07-14 18:06:00,
2013-07-14 14:11:00,90.6,73.0,30.26,SE,139,3.0,7.0,56,0.00,,,0.00,WUHU216DAVISVP2,2013-07-14 18:11:00,
2013-07-14 14:16:00,90.8,72.1,30.26,WNW,293,1.0,7.0,54,0.00,,,0.00,WUHU216DAVISVP2,2013-07-14 18:16:00,
2013-07-14 14:21:00,90.9,71.6,30.26,WNW,300,1.0,7.0,53,0.00,,,0.00,WUHU216DAVISVP2,2013-07-14 18:21:00,
2013-07-14 14:26:00,90.6,70.8,30.26,SW,232,2.0,7.0,52,0.00,,,0.00,WUHU216DAVISVP2,2013-07-14 18:26:00,
2013-07-14 14:31:00,90.2,71.8,30.26,WNW,298,0.0,6.0,55,0.00,,,0.00,WUHU216DAVISVP2,2013-07-14 18:31:00,
2013-07-14 14:36:00,90.9,73.3,30.26,North,349,0.0,6.0,56,0.00,,,0.00,WUHU216DAVISVP2,2013-07-14 18:36:00,
2013-07-14 14:41:00,91.3,72.6,30.25,WSW,256,1.0,6.0,54,0.00,,,0.00,WUHU216DAVISVP2,2013-07-14 18:41:00,
2013-07-14 14:46:00,91.2,72.5,30.25,NNW,335,0.0,7.0,54,0.00,,,0.00,WUHU216DAVISVP2,2013-07-14 18:46:00,
2013-07-14 14:51:00,91.4,71.5,30.25,West,261,0.0,7.0,52,0.00,,,0.00,WUHU216DAVISVP2,2013-07-14 18:51:00,
2013-07-14 14:56:00,91.4,72.1,30.25,SE,132,2.0,7.0,53,0.00,,,0.00,WUHU216DAVISVP2,2013-07-14 18:56:00,
2013-07-14 15:01:00,91.2,71.3,30.25,SSW,212,0.0,7.0,52,0.00,,,0.00,WUHU216DAVISVP2,2013-07-14 19:01:00,
2013-07-14 15:06:00,91.2,71.3,30.25,WNW,283,2.0,6.0,52,0.00,,,0.00,WUHU216DAVISVP2,2013-07-14 19:06:00,
2013-07-14 15:11:00,91.0,72.0,30.24,WNW,302,1.0,6.0,54,0.00,,,0.00,WUHU216DAVISVP2,2013-07-14 19:11:00,
2013-07-14 15:16:00,91.6,72.0,30.24,West,267,4.0,5.0,53,0.00,,,0.00,WUHU216DAVISVP2,2013-07-14 19:16:00,
2013-07-14 15:21:00,91.2,71.9,30.25,WSW,240,3.0,5.0,53,0.00,,,0.00,WUHU216DAVISVP2,2013-07-14 19:21:00,
2013-07-14 15:26:00,90.8,71.5,30.24,WNW,288,3.0,7.0,53,0.00,,,0.00,WUHU216DAVISVP2,2013-07-14 19:26:00,
2013-07-14 15:31:00,90.7,71.4,30.24,SW,232,4.0,7.0,53,0.00,,,0.00,WUHU216DAVISVP2,2013-07-14 19:31:00,
2013-07-14 15:36:00,91.4,72.1,30.24,SW,231,6.0,7.0,53,0.00,,,0.00,WUHU216DAVISVP2,2013-07-14 19:36:00,
2013-07-14 15:41:00,91.5,72.8,30.24,SW,231,1.0,7.0,54,0.00,,,0.00,WUHU216DAVISVP2,2013-07-14 19:41:00,
2013-07-14 15:46:00,91.2,71.3,30.24,West,277,0.0,8.0,52,0.00,,,0.00,WUHU216DAVISVP2,2013-07-14 19:46:00,
2013-07-14 15:51:00,91.3,72.0,30.24,WSW,242,0.0,8.0,53,0.00,,,0.00,WUHU216DAVISVP2,2013-07-14 19:51:00,
2013-07-14 15:56:00,91.9,72.0,30.24,SW,236,2.0,7.0,52,0.00,,,0.00,WUHU216DAVISVP2,2013-07-14 19:56:00,
2013-07-14 16:01:00,91.3,72.0,30.24,SW,232,0.0,7.0,53,0.00,,,0.00,WUHU216DAVISVP2,2013-07-14 20:01:00,
2013-07-14 16:06:00,91.4,73.2,30.24,East,82,2.0,5.0,55,0.00,,,0.00,WUHU216DAVISVP2,2013-07-14 20:06:00,
2013-07-14 16:11:00,89.8,72.8,30.24,East,82,0.0,6.0,57,0.00,,,0.00,WUHU216DAVISVP2,2013-07-14 20:11:00,
2013-07-14 16:16:00,90.5,73.5,30.23,ENE,58,3.0,6.0,57,0.00,,,0.00,WUHU216DAVISVP2,2013-07-14 20:16:00,
2013-07-14 16:21:00,90.2,73.7,30.23,NNW,327,0.0,6.0,58,0.00,,,0.00,WUHU216DAVISVP2,2013-07-14 20:21:00,
2013-07-14 16:26:00,89.6,73.1,30.23,SSE,156,7.0,8.0,58,0.00,,,0.00,WUHU216DAVISVP2,2013-07-14 20:26:00,
2013-07-14 16:31:00,89.4,73.5,30.23,SSW,208,0.0,9.0,59,0.00,,,0.00,WUHU216DAVISVP2,2013-07-14 20:31:00,
2013-07-14 16:36:00,89.0,72.3,30.23,East,85,3.0,9.0,58,0.00,,,0.00,WUHU216DAVISVP2,2013-07-14 20:36:00,
2013-07-14 16:41:00,88.2,73.0,30.23,ESE,111,0.0,9.0,61,0.00,,,0.00,WUHU216DAVISVP2,2013-07-14 20:41:00,
2013-07-14 16:46:00,87.8,72.2,30.23,East,96,2.0,5.0,60,0.00,,,0.00,WUHU216DAVISVP2,2013-07-14 20:46:00,
2013-07-14 16:51:00,88.2,73.3,30.23,West,262,0.0,4.0,61,0.00,,,0.00,WUHU216DAVISVP2,2013-07-14 20:51:00,
2013-07-14 16:56:00,88.7,73.8,30.23,SE,136,0.0,3.0,61,0.00,,,0.00,WUHU216DAVISVP2,2013-07-14 20:56:00,
2013-07-14 17:01:00,88.3,73.9,30.23,ESE,109,0.0,3.0,62,0.00,,,0.00,WUHU216DAVISVP2,2013-07-14 21:01:00,
2013-07-14 17:06:00,88.3,73.4,30.23,SSE,167,1.0,3.0,61,0.00,,,0.00,WUHU216DAVISVP2,2013-07-14 21:06:00,
2013-07-14 17:11:00,89.1,73.7,30.23,East,90,0.0,2.0,60,0.00,,,0.00,WUHU216DAVISVP2,2013-07-14 21:11:00,
2013-07-14 17:16:00,89.4,74.0,30.23,East,91,1.0,2.0,60,0.00,,,0.00,WUHU216DAVISVP2,2013-07-14 21:16:00,
2013-07-14 17:21:00,89.4,74.5,30.22,SE,140,1.0,6.0,61,0.00,,,0.00,WUHU216DAVISVP2,2013-07-14 21:21:00,
2013-07-14 17:26:00,89.0,72.6,30.22,SE,141,1.0,6.0,58,0.00,,,0.00,WUHU216DAVISVP2,2013-07-14 21:26:00,
2013-07-14 17:31:00,89.1,72.7,30.22,West,281,0.0,5.0,58,0.00,,,0.00,WUHU216DAVISVP2,2013-07-14 21:31:00,
2013-07-14 17:36:00,89.7,73.2,30.22,SE,133,1.0,5.0,58,0.00,,,0.00,WUHU216DAVISVP2,2013-07-14 21:36:00,
2013-07-14 17:41:00,90.4,72.8,30.22,ENE,74,0.0,3.0,56,0.00,,,0.00,WUHU216DAVISVP2,2013-07-14 21:41:00,
2013-07-14 17:46:00,90.6,73.6,30.22,SSE,148,1.0,1.0,57,0.00,,,0.00,WUHU216DAVISVP2,2013-07-14 21:46:00,
2013-07-14 17:51:00,90.8,72.7,30.22,WSW,244,2.0,3.0,55,0.00,,,0.00,WUHU216DAVISVP2,2013-07-14 21:51:00,
2013-07-14 17:56:00,91.0,73.4,30.21,SW,232,1.0,3.0,56,0.00,,,0.00,WUHU216DAVISVP2,2013-07-14 21:56:00,
2013-07-14 18:01:00,91.8,72.8,30.21,WSW,248,0.0,3.0,54,0.00,,,0.00,WUHU216DAVISVP2,2013-07-14 22:01:00,
2013-07-14 18:06:00,92.1,72.5,30.22,SE,146,0.0,3.0,53,0.00,,,0.00,WUHU216DAVISVP2,2013-07-14 22:06:00,
2013-07-14 18:11:00,92.2,73.2,30.22,WSW,238,0.0,3.0,54,0.00,,,0.00,WUHU216DAVISVP2,2013-07-14 22:11:00,
2013-07-14 18:16:00,92.1,72.2,30.22,WSW,248,2.0,3.0,52,0.00,,,0.00,WUHU216DAVISVP2,2013-07-14 22:16:00,
2013-07-14 18:21:00,91.9,72.0,30.22,NE,46,1.0,3.0,52,0.00,,,0.00,WUHU216DAVISVP2,2013-07-14 22:21:00,
2013-07-14 18:26:00,91.4,72.1,30.22,East,98,0.0,3.0,53,0.00,,,0.00,WUHU216DAVISVP2,2013-07-14 22:26:00,
2013-07-14 18:31:00,90.9,73.3,30.22,ENE,64,4.0,4.0,56,0.00,,,0.00,WUHU216DAVISVP2,2013-07-14 22:31:00,
2013-07-14 18:36:00,89.9,73.9,30.22,East,99,1.0,4.0,59,0.00,,,0.00,WUHU216DAVISVP2,2013-07-14 22:36:00,
2013-07-14 18:41:00,89.1,74.2,30.22,ENE,72,0.0,4.0,61,0.00,,,0.00,WUHU216DAVISVP2,2013-07-14 22:41:00,
2013-07-14 18:46:00,88.9,74.0,30.22,ENE,63,0.0,4.0,61,0.00,,,0.00,WUHU216DAVISVP2,2013-07-14 22:46:00,
2013-07-14 18:51:00,88.7,73.3,30.22,ENE,64,3.0,4.0,60,0.00,,,0.00,WUHU216DAVISVP2,2013-07-14 22:51:00,
2013-07-14 18:56:00,88.6,74.2,30.22,ENE,77,0.0,4.0,62,0.00,,,0.00,WUHU216DAVISVP2,2013-07-14 22:56:00,
2013-07-14 19:01:00,88.6,74.2,30.22,ENE,72,0.0,4.0,62,0.00,,,0.00,WUHU216DAVISVP2,2013-07-14 23:01:00,
2013-07-14 19:06:00,89.3,74.4,30.21,North,354,0.0,3.0,61,0.00,,,0.00,WUHU216DAVISVP2,2013-07-14 23:06:00,
2013-07-14 19:11:00,89.5,74.1,30.22,NE,37,1.0,4.0,60,0.00,,,0.00,WUHU216DAVISVP2,2013-07-14 23:11:00,
2013-07-14 19:16:00,88.8,75.8,30.21,NNE,23,6.0,10.0,65,0.00,,,0.00,WUHU216DAVISVP2,2013-07-14 23:16:00,
2013-07-14 19:21:00,87.5,75.9,30.22,NE,37,2.0,10.0,68,0.00,,,0.00,WUHU216DAVISVP2,2013-07-14 23:21:00,
2013-07-14 19:26:00,86.8,75.7,30.21,West,280,1.0,10.0,69,0.00,,,0.00,WUHU216DAVISVP2,2013-07-14 23:26:00,
2013-07-14 19:31:00,86.5,75.8,30.21,North,349,1.0,9.0,70,0.00,,,0.00,WUHU216DAVISVP2,2013-07-14 23:31:00,
2013-07-14 19:36:00,86.1,75.2,30.22,NNE,33,3.0,9.0,70,0.00,,,0.00,WUHU216DAVISVP2,2013-07-14 23:36:00,
2013-07-14 19:41:00,85.8,75.6,30.21,NE,36,6.0,8.0,71,0.00,,,0.00,WUHU216DAVISVP2,2013-07-14 23:41:00,
2013-07-14 19:46:00,85.5,75.7,30.22,ENE,70,3.0,7.0,72,0.00,,,0.00,WUHU216DAVISVP2,2013-07-14 23:46:00,
2013-07-14 19:51:00,85.4,75.8,30.22,North,9,2.0,7.0,73,0.00,,,0.00,WUHU216DAVISVP2,2013-07-14 23:51:00,
2013-07-14 19:56:00,85.1,75.5,30.22,NNW,330,2.0,8.0,73,0.00,,,0.00,WUHU216DAVISVP2,2013-07-14 23:56:00,
2013-07-14 20:01:00,84.8,75.4,30.22,NNE,13,2.0,8.0,73,0.00,,,0.00,WUHU216DAVISVP2,2013-07-15 00:01:00,
2013-07-14 20:06:00,84.3,75.3,30.22,NNW,336,2.0,7.0,74,0.00,,,0.00,WUHU216DAVISVP2,2013-07-15 00:06:00,
2013-07-14 20:11:00,83.8,74.8,30.22,NW,313,5.0,7.0,74,0.00,,,0.00,WUHU216DAVISVP2,2013-07-15 00:11:00,
2013-07-14 20:16:00,83.2,74.3,30.22,NW,325,2.0,7.0,74,0.00,,,0.00,WUHU216DAVISVP2,2013-07-15 00:16:00,
2013-07-14 20:21:00,82.8,74.3,30.22,NNE,19,2.0,7.0,75,0.00,,,0.00,WUHU216DAVISVP2,2013-07-15 00:21:00,
2013-07-14 20:26:00,82.5,74.3,30.22,NW,320,2.0,6.0,76,0.00,,,0.00,WUHU216DAVISVP2,2013-07-15 00:26:00,
2013-07-14 20:31:00,82.3,74.2,30.22,NNE,29,1.0,6.0,76,0.00,,,0.00,WUHU216DAVISVP2,2013-07-15 00:31:00,
2013-07-14 20:36:00,82.0,73.7,30.22,NNE,33,4.0,7.0,76,0.00,,,0.00,WUHU216DAVISVP2,2013-07-15 00:36:00,
2013-07-14 20:41:00,81.6,73.7,30.22,NNE,24,1.0,7.0,77,0.00,,,0.00,WUHU216DAVISVP2,2013-07-15 00:41:00,
2013-07-14 20:46:00,81.4,73.5,30.23,NNW,342,1.0,7.0,77,0.00,,,0.00,WUHU216DAVISVP2,2013-07-15 00:46:00,
2013-07-14 20:51:00,81.0,73.1,30.22,NNE,19,2.0,7.0,77,0.00,,,0.00,WUHU216DAVISVP2,2013-07-15 00:51:00,
2013-07-14 20:56:00,80.7,73.2,30.22,NNE,28,3.0,7.0,78,0.00,,,0.00,WUHU216DAVISVP2,2013-07-15 00:56:00,
2013-07-14 21:01:00,80.5,73.0,30.22,ENE,57,1.0,6.0,78,0.00,,,0.00,WUHU216DAVISVP2,2013-07-15 01:01:00,
2013-07-14 21:06:00,80.3,72.8,30.22,NNW,336,2.0,6.0,78,0.00,,,0.00,WUHU216DAVISVP2,2013-07-15 01:06:00,
2013-07-14 21:11:00,80.1,73.1,30.22,North,359,0.0,5.0,79,0.00,,,0.00,WUHU216DAVISVP2,2013-07-15 01:11:00,
2013-07-14 21:16:00,79.9,72.9,30.22,NNE,26,3.0,4.0,79,0.00,,,0.00,WUHU216DAVISVP2,2013-07-15 01:16:00,
2013-07-14 21:21:00,79.7,72.7,30.22,NNW,338,0.0,5.0,79,0.00,,,0.00,WUHU216DAVISVP2,2013-07-15 01:21:00,
2013-07-14 21:26:00,79.6,72.6,30.23,NNW,346,1.0,5.0,79,0.00,,,0.00,WUHU216DAVISVP2,2013-07-15 01:26:00,
2013-07-14 21:31:00,79.4,72.4,30.23,NNE,21,1.0,4.0,79,0.00,,,0.00,WUHU216DAVISVP2,2013-07-15 01:31:00,
2013-07-14 21:36:00,79.3,72.7,30.23,NE,37,3.0,4.0,80,0.00,,,0.00,WUHU216DAVISVP2,2013-07-15 01:36:00,
2013-07-14 21:41:00,79.2,72.6,30.23,North,8,0.0,4.0,80,0.00,,,0.00,WUHU216DAVISVP2,2013-07-15 01:41:00,
2013-07-14 21:46:00,79.1,72.5,30.23,NNE,13,1.0,4.0,80,0.00,,,0.00,WUHU216DAVISVP2,2013-07-15 01:46:00,
2013-07-14 21:51:00,79.0,72.4,30.23,NE,44,1.0,3.0,80,0.00,,,0.00,WUHU216DAVISVP2,2013-07-15 01:51:00,
2013-07-14 21:56:00,78.8,72.6,30.23,NE,37,0.0,3.0,81,0.00,,,0.00,WUHU216DAVISVP2,2013-07-15 01:56:00,
2013-07-14 22:01:00,78.7,72.5,30.23,NNE,26,3.0,3.0,81,0.00,,,0.00,WUHU216DAVISVP2,2013-07-15 02:01:00,
2013-07-14 22:06:00,78.6,72.4,30.23,NNE,20,1.0,3.0,81,0.00,,,0.00,WUHU216DAVISVP2,2013-07-15 02:06:00,
2013-07-14 22:11:00,78.5,72.2,30.23,NNE,25,1.0,3.0,81,0.00,,,0.00,WUHU216DAVISVP2,2013-07-15 02:11:00,
2013-07-14 22:16:00,78.4,72.4,30.23,NE,48,0.0,3.0,82,0.00,,,0.00,WUHU216DAVISVP2,2013-07-15 02:16:00,
2013-07-14 22:21:00,78.2,72.3,30.23,NNE,32,1.0,3.0,82,0.00,,,0.00,WUHU216DAVISVP2,2013-07-15 02:21:00,
2013-07-14 22:26:00,78.1,72.2,30.23,NNE,19,0.0,3.0,82,0.00,,,0.00,WUHU216DAVISVP2,2013-07-15 02:26:00,
2013-07-14 22:31:00,78.0,72.5,30.23,NNW,329,1.0,2.0,83,0.00,,,0.00,WUHU216DAVISVP2,2013-07-15 02:31:00,
2013-07-14 22:36:00,77.8,72.3,30.23,NNW,334,0.0,3.0,83,0.00,,,0.00,WUHU216DAVISVP2,2013-07-15 02:36:00,
2013-07-14 22:41:00,77.7,72.2,30.23,NNW,334,0.0,3.0,83,0.00,,,0.00,WUHU216DAVISVP2,2013-07-15 02:41:00,
2013-07-14 22:46:00,77.6,72.4,30.23,NNW,335,0.0,3.0,84,0.00,,,0.00,WUHU216DAVISVP2,2013-07-15 02:46:00,
2013-07-14 22:51:00,77.4,72.2,30.23,NE,36,1.0,3.0,84,0.00,,,0.00,WUHU216DAVISVP2,2013-07-15 02:51:00,
2013-07-14 22:56:00,77.4,72.2,30.23,NE,41,1.0,2.0,84,0.00,,,0.00,WUHU216DAVISVP2,2013-07-15 02:56:00,
2013-07-14 23:01:00,77.3,72.1,30.24,North,355,0.0,2.0,84,0.00,,,0.00,WUHU216DAVISVP2,2013-07-15 03:01:00,
2013-07-14 23:06:00,77.3,72.1,30.23,NW,326,0.0,2.0,84,0.00,,,0.00,WUHU216DAVISVP2,2013-07-15 03:06:00,
2013-07-14 23:11:00,77.3,72.1,30.24,NNE,22,0.0,2.0,84,0.00,,,0.00,WUHU216DAVISVP2,2013-07-15 03:11:00,
2013-07-14 23:16:00,77.3,72.1,30.23,NNW,333,1.0,2.0,84,0.00,,,0.00,WUHU216DAVISVP2,2013-07-15 03:16:00,
2013-07-14 23:21:00,77.3,72.1,30.23,North,352,0.0,2.0,84,0.00,,,0.00,WUHU216DAVISVP2,2013-07-15 03:21:00,
2013-07-14 23:26:00,77.3,72.1,30.24,NNE,18,0.0,1.0,84,0.00,,,0.00,WUHU216DAVISVP2,2013-07-15 03:26:00,
2013-07-14 23:31:00,77.4,72.2,30.24,North,357,0.0,2.0,84,0.00,,,0.00,WUHU216DAVISVP2,2013-07-15 03:31:00,
2013-07-14 23:36:00,77.4,72.2,30.24,NNW,338,0.0,2.0,84,0.00,,,0.00,WUHU216DAVISVP2,2013-07-15 03:36:00,
2013-07-14 23:41:00,77.5,72.3,30.24,NNE,30,0.0,2.0,84,0.00,,,0.00,WUHU216DAVISVP2,2013-07-15 03:41:00,
2013-07-14 23:46:00,77.6,72.4,30.23,NNE,28,0.0,2.0,84,0.00,,,0.00,WUHU216DAVISVP2,2013-07-15 03:46:00,
2013-07-14 23:51:00,77.6,72.4,30.24,NNW,346,0.0,2.0,84,0.00,,,0.00,WUHU216DAVISVP2,2013-07-15 03:51:00,
2013-07-14 23:56:00,77.6,72.4,30.23,East,86,0.0,2.0,84,0.00,,,0.00,WUHU216DAVISVP2,2013-07-15 03:56:00,